Location: Grange Verzio
(44.5000°N, 6.9833°E)
Time: 06:47:29
(UTC+00:00)

CSL-04 Rocket - Pass Details

Date: 01 February 2023
Orbit: 806 x 859 km, 98.8° (Epoch: 21 March)

Event Time Altitude Azimuth Distance (km) Brightness Sun altitude
Exits shadow 19:22:11 53° 349° (NNW) 1,008 4.1 -28.9°
Drops below altitude 10° 19:26:14 10° 347° (NNW) 2,437 6.3 -29.7°
Sets 19:28:37 0° 347° (NNW) 3,383 7.1 -30.1°
